Location: *
(23.5860°S, 65.4036°W)
Time: 22:38:22
(UTC+00:00)

ASC 2 Rocket - Pass Details

Date: 25 August 2019
Orbit: 555 x 2345 km, 24.0° (Epoch: 20 September)

Event Time Altitude Azimuth Distance (km) Brightness Sun altitude
Rises 22:54:42 0° 284° (WNW) 3,308 8.9 -11.3°
Reaches altitude 10° 22:57:29 10° 285° (WNW) 2,181 7.3 -11.9°
Maximum altitude 23:02:19 74° 10° (N) 622 3.0 -13.0°
Enters shadow 23:04:54 22° 92° (E) 1,264 4.0 -13.6°
